Time,TemperatureF,DewpointF,PressureIn,WindDirection,WindDirectionDegrees,WindSpeedMPH,WindSpeedGustMPH,Humidity,HourlyPrecipIn,Conditions,Clouds,dailyrainin,SolarRadiationWatts/m^2,SoftwareType,DateUTC
2013-04-08 00:22:00,31.0,29.0,-100.00,SW,222,5.0,9.0,91,0.00,,,0.08,1.000000,,2013-04-08 06:22:00,
2013-04-08 00:32:00,31.0,29.0,-100.00,SW,222,5.0,9.0,91,0.00,,,0.08,1.000000,,2013-04-08 06:32:00,
2013-04-08 00:42:00,31.0,29.0,-100.00,SW,222,5.0,9.0,91,0.00,,,0.08,1.000000,,2013-04-08 06:42:00,
2013-04-08 00:52:00,31.0,29.0,-100.00,SW,222,5.0,9.0,91,0.00,,,0.08,1.000000,,2013-04-08 06:52:00,
2013-04-08 01:22:00,31.0,29.0,-100.00,WSW,244,4.0,10.0,91,0.00,,,0.08,0.000000,,2013-04-08 07:22:00,
2013-04-08 01:32:00,31.0,29.0,-100.00,WSW,244,4.0,10.0,91,0.00,,,0.08,0.000000,,2013-04-08 07:32:00,
2013-04-08 01:42:00,31.0,29.0,-100.00,WSW,244,4.0,10.0,91,0.00,,,0.08,0.000000,,2013-04-08 07:42:00,
2013-04-08 01:52:00,31.0,29.0,-100.00,WSW,244,4.0,10.0,91,0.00,,,0.08,0.000000,,2013-04-08 07:52:00,
2013-04-08 02:32:00,27.0,26.0,-100.00,SSE,157,2.0,5.0,96,0.00,,,0.07,0.000000,,2013-04-08 08:32:00,
2013-04-08 02:42:00,27.0,26.0,-100.00,SSE,157,2.0,5.0,96,0.00,,,0.07,0.000000,,2013-04-08 08:42:00,
2013-04-08 02:52:00,27.0,26.0,-100.00,SSE,157,2.0,5.0,96,0.00,,,0.07,0.000000,,2013-04-08 08:52:00,
2013-04-08 03:22:00,28.0,27.0,-100.00,NNW,343,3.0,7.0,95,0.00,,,0.07,0.000000,,2013-04-08 09:22:00,
2013-04-08 03:33:00,28.0,27.0,-100.00,NNW,343,3.0,7.0,95,0.00,,,0.07,0.000000,,2013-04-08 09:33:00,
2013-04-08 03:42:00,28.0,27.0,-100.00,NNW,343,3.0,7.0,95,0.00,,,0.07,0.000000,,2013-04-08 09:42:00,
2013-04-08 03:52:00,28.0,27.0,-100.00,NNW,343,3.0,7.0,95,0.00,,,0.07,0.000000,,2013-04-08 09:52:00,
2013-04-08 04:23:00,29.0,27.0,-100.00,NW,322,5.0,8.0,93,0.00,,,0.07,1.000000,,2013-04-08 10:23:00,
2013-04-08 04:32:00,29.0,27.0,-100.00,NW,322,5.0,8.0,93,0.00,,,0.07,1.000000,,2013-04-08 10:32:00,
2013-04-08 04:42:00,29.0,27.0,-100.00,NW,322,5.0,8.0,93,0.00,,,0.07,1.000000,,2013-04-08 10:42:00,
2013-04-08 04:52:00,29.0,27.0,-100.00,NW,322,5.0,8.0,93,0.00,,,0.07,1.000000,,2013-04-08 10:52:00,
2013-04-08 05:22:00,28.0,27.0,-100.00,North,7,3.0,5.0,96,0.00,,,0.07,0.000000,,2013-04-08 11:22:00,
2013-04-08 05:32:00,28.0,27.0,-100.00,North,7,3.0,5.0,96,0.00,,,0.07,0.000000,,2013-04-08 11:32:00,
2013-04-08 05:42:00,28.0,27.0,-100.00,North,7,3.0,5.0,96,0.00,,,0.07,0.000000,,2013-04-08 11:42:00,
2013-04-08 05:52:00,28.0,27.0,-100.00,North,7,3.0,5.0,96,0.00,,,0.07,0.000000,,2013-04-08 11:52:00,
2013-04-08 06:22:00,29.0,28.0,-100.00,NNW,341,3.0,5.0,96,0.00,,,0.07,1.000000,,2013-04-08 12:22:00,
2013-04-08 06:32:00,29.0,28.0,-100.00,NNW,341,3.0,5.0,96,0.00,,,0.07,1.000000,,2013-04-08 12:32:00,
2013-04-08 06:42:00,29.0,28.0,-100.00,NNW,341,3.0,5.0,96,0.00,,,0.07,1.000000,,2013-04-08 12:42:00,
2013-04-08 06:52:00,29.0,28.0,-100.00,NNW,341,3.0,5.0,96,0.00,,,0.07,1.000000,,2013-04-08 12:52:00,
2013-04-08 07:22:00,29.0,28.0,-100.00,North,6,4.0,5.0,96,0.00,,,0.07,1.000000,,2013-04-08 13:22:00,
2013-04-08 07:32:00,29.0,28.0,-100.00,North,6,4.0,5.0,96,0.00,,,0.07,1.000000,,2013-04-08 13:32:00,
2013-04-08 07:42:00,29.0,28.0,-100.00,North,6,4.0,5.0,96,0.00,,,0.07,1.000000,,2013-04-08 13:42:00,
2013-04-08 07:52:00,29.0,28.0,-100.00,North,6,4.0,5.0,96,0.00,,,0.07,1.000000,,2013-04-08 13:52:00,
2013-04-08 08:22:00,28.0,26.0,-100.00,North,1,4.0,11.0,93,0.00,,,0.07,25.000000,,2013-04-08 14:22:00,
2013-04-08 08:32:00,28.0,26.0,-100.00,North,1,4.0,11.0,93,0.00,,,0.07,25.000000,,2013-04-08 14:32:00,
2013-04-08 08:42:00,28.0,26.0,-100.00,North,1,4.0,11.0,93,0.00,,,0.07,25.000000,,2013-04-08 14:42:00,
2013-04-08 08:52:00,28.0,26.0,-100.00,North,1,4.0,11.0,93,0.00,,,0.07,25.000000,,2013-04-08 14:52:00,
2013-04-08 09:22:00,30.0,28.0,-100.00,North,11,7.0,9.0,91,0.00,,,0.07,71.000000,,2013-04-08 15:22:00,
2013-04-08 09:33:00,30.0,28.0,-100.00,North,11,7.0,9.0,91,0.00,,,0.07,71.000000,,2013-04-08 15:33:00,
2013-04-08 09:42:00,30.0,28.0,-100.00,North,11,7.0,9.0,91,0.00,,,0.07,71.000000,,2013-04-08 15:42:00,
2013-04-08 09:52:00,30.0,28.0,-100.00,North,11,7.0,9.0,91,0.00,,,0.07,71.000000,,2013-04-08 15:52:00,
2013-04-08 10:22:00,31.0,26.0,-100.00,NNE,15,7.0,14.0,83,0.01,,,0.07,177.000000,,2013-04-08 16:22:00,
2013-04-08 10:32:00,31.0,26.0,-100.00,NNE,15,7.0,14.0,83,0.01,,,0.07,177.000000,,2013-04-08 16:32:00,
2013-04-08 10:42:00,31.0,26.0,-100.00,NNE,15,7.0,14.0,83,0.01,,,0.07,177.000000,,2013-04-08 16:42:00,
2013-04-08 10:52:00,31.0,26.0,-100.00,NNE,15,7.0,14.0,83,0.01,,,0.07,177.000000,,2013-04-08 16:52:00,
2013-04-08 11:22:00,32.0,29.0,-100.00,North,9,9.0,14.0,88,0.00,,,0.06,215.000000,,2013-04-08 17:22:00,
2013-04-08 11:32:00,32.0,29.0,-100.00,North,9,9.0,14.0,88,0.00,,,0.06,215.000000,,2013-04-08 17:32:00,
2013-04-08 11:43:00,32.0,29.0,-100.00,North,9,9.0,14.0,88,0.00,,,0.06,215.000000,,2013-04-08 17:43:00,
2013-04-08 11:52:00,32.0,29.0,-100.00,North,9,9.0,14.0,88,0.00,,,0.06,215.000000,,2013-04-08 17:52:00,
2013-04-08 12:12:00,34.0,29.0,-100.00,NNE,12,9.0,13.0,81,0.00,,,0.06,244.000000,,2013-04-08 18:12:00,
2013-04-08 12:22:00,34.0,29.0,-100.00,NNE,12,9.0,13.0,81,0.00,,,0.06,244.000000,,2013-04-08 18:22:00,
2013-04-08 12:32:00,34.0,29.0,-100.00,NNE,12,9.0,13.0,81,0.00,,,0.06,244.000000,,2013-04-08 18:32:00,
2013-04-08 12:42:00,34.0,29.0,-100.00,NNE,12,9.0,13.0,81,0.00,,,0.06,244.000000,,2013-04-08 18:42:00,
2013-04-08 12:52:00,34.0,29.0,-100.00,NNE,12,9.0,13.0,81,0.00,,,0.06,244.000000,,2013-04-08 18:52:00,
2013-04-08 13:12:00,35.0,29.0,-100.00,North,7,10.0,15.0,80,0.00,,,0.06,218.000000,,2013-04-08 19:12:00,
2013-04-08 13:22:00,35.0,29.0,-100.00,North,7,10.0,15.0,80,0.00,,,0.06,218.000000,,2013-04-08 19:22:00,
2013-04-08 13:33:00,35.0,29.0,-100.00,North,7,10.0,15.0,80,0.00,,,0.06,218.000000,,2013-04-08 19:33:00,
2013-04-08 13:42:00,35.0,29.0,-100.00,North,7,10.0,15.0,80,0.00,,,0.06,218.000000,,2013-04-08 19:42:00,
2013-04-08 13:52:00,35.0,29.0,-100.00,North,7,10.0,15.0,80,0.00,,,0.06,218.000000,,2013-04-08 19:52:00,
2013-04-08 14:22:00,36.0,30.0,-100.00,North,2,11.0,17.0,79,0.00,,,0.06,355.000000,,2013-04-08 20:22:00,
2013-04-08 14:33:00,36.0,30.0,-100.00,North,2,11.0,17.0,79,0.00,,,0.06,355.000000,,2013-04-08 20:33:00,
2013-04-08 14:42:00,36.0,30.0,-100.00,North,2,11.0,17.0,79,0.00,,,0.06,355.000000,,2013-04-08 20:42:00,
2013-04-08 14:52:00,36.0,30.0,-100.00,North,2,11.0,17.0,79,0.00,,,0.06,355.000000,,2013-04-08 20:52:00,
2013-04-08 15:22:00,34.0,29.0,-100.00,NNE,17,10.0,19.0,83,0.00,,,0.06,332.000000,,2013-04-08 21:22:00,
2013-04-08 15:32:00,34.0,29.0,-100.00,NNE,17,10.0,19.0,83,0.00,,,0.06,332.000000,,2013-04-08 21:32:00,
2013-04-08 15:43:00,34.0,29.0,-100.00,NNE,17,10.0,19.0,83,0.00,,,0.06,332.000000,,2013-04-08 21:43:00,
2013-04-08 15:52:00,34.0,29.0,-100.00,NNE,17,10.0,19.0,83,0.00,,,0.06,332.000000,,2013-04-08 21:52:00,
2013-04-08 16:22:00,30.0,25.0,-100.00,NNE,21,20.0,27.0,83,0.01,,,0.04,200.000000,,2013-04-08 22:22:00,
2013-04-08 16:32:00,30.0,25.0,-100.00,NNE,21,20.0,27.0,83,0.01,,,0.04,200.000000,,2013-04-08 22:32:00,
2013-04-08 16:42:00,30.0,25.0,-100.00,NNE,21,20.0,27.0,83,0.01,,,0.04,200.000000,,2013-04-08 22:42:00,
2013-04-08 16:52:00,30.0,25.0,-100.00,NNE,21,20.0,27.0,83,0.01,,,0.04,200.000000,,2013-04-08 22:52:00,
2013-04-08 17:32:00,30.0,27.0,-100.00,North,4,15.0,25.0,87,0.00,,,0.04,193.000000,,2013-04-08 23:32:00,
2013-04-08 17:42:00,30.0,27.0,-100.00,North,4,15.0,25.0,87,0.00,,,0.04,193.000000,,2013-04-08 23:42:00,
2013-04-08 17:52:00,30.0,27.0,-100.00,North,4,15.0,25.0,87,0.00,,,0.04,193.000000,,2013-04-08 23:52:00,
2013-04-08 18:22:00,27.0,24.0,-100.00,North,8,17.0,26.0,87,0.00,,,0.04,163.000000,,2013-04-09 00:22:00,
2013-04-08 18:32:00,27.0,24.0,-100.00,North,8,17.0,26.0,87,0.00,,,0.04,163.000000,,2013-04-09 00:32:00,
2013-04-08 18:42:00,27.0,24.0,-100.00,North,8,17.0,26.0,87,0.00,,,0.04,163.000000,,2013-04-09 00:42:00,
2013-04-08 18:52:00,27.0,24.0,-100.00,North,8,17.0,26.0,87,0.00,,,0.04,163.000000,,2013-04-09 00:52:00,
2013-04-08 19:22:00,26.0,22.0,-100.00,North,4,14.0,23.0,83,0.00,,,0.03,47.000000,,2013-04-09 01:22:00,
2013-04-08 19:32:00,26.0,22.0,-100.00,North,4,14.0,23.0,83,0.00,,,0.03,47.000000,,2013-04-09 01:32:00,
2013-04-08 19:42:00,26.0,22.0,-100.00,North,4,14.0,23.0,83,0.00,,,0.03,47.000000,,2013-04-09 01:42:00,
2013-04-08 19:52:00,26.0,22.0,-100.00,North,4,14.0,23.0,83,0.00,,,0.03,47.000000,,2013-04-09 01:52:00,
2013-04-08 20:22:00,26.0,20.0,-100.00,North,10,15.0,22.0,77,0.00,,,0.02,23.000000,,2013-04-09 02:22:00,
2013-04-08 20:32:00,26.0,20.0,-100.00,North,10,15.0,22.0,77,0.00,,,0.02,23.000000,,2013-04-09 02:32:00,
2013-04-08 20:42:00,26.0,20.0,-100.00,North,10,15.0,22.0,77,0.00,,,0.02,23.000000,,2013-04-09 02:42:00,
2013-04-08 20:52:00,26.0,20.0,-100.00,North,10,15.0,22.0,77,0.00,,,0.02,23.000000,,2013-04-09 02:52:00,
2013-04-08 21:21:00,23.0,11.0,-100.00,North,6,17.0,29.0,60,0.00,,,0.02,1.000000,,2013-04-09 03:21:00,
2013-04-08 21:32:00,23.0,11.0,-100.00,North,6,17.0,29.0,60,0.00,,,0.02,1.000000,,2013-04-09 03:32:00,
2013-04-08 21:42:00,23.0,11.0,-100.00,North,6,17.0,29.0,60,0.00,,,0.02,1.000000,,2013-04-09 03:42:00,
2013-04-08 21:52:00,23.0,11.0,-100.00,North,6,17.0,29.0,60,0.00,,,0.02,1.000000,,2013-04-09 03:52:00,
2013-04-08 22:23:00,22.0,9.0,-100.00,North,7,17.0,25.0,57,0.00,,,0.02,0.000000,,2013-04-09 04:23:00,
2013-04-08 22:32:00,22.0,9.0,-100.00,North,7,17.0,25.0,57,0.00,,,0.02,0.000000,,2013-04-09 04:32:00,
2013-04-08 22:42:00,22.0,9.0,-100.00,North,7,17.0,25.0,57,0.00,,,0.02,0.000000,,2013-04-09 04:42:00,
2013-04-08 22:52:00,22.0,9.0,-100.00,North,7,17.0,25.0,57,0.00,,,0.02,0.000000,,2013-04-09 04:52:00,
2013-04-08 23:22:00,22.0,8.0,-100.00,North,7,16.0,27.0,55,0.00,,,0.02,0.000000,,2013-04-09 05:22:00,
2013-04-08 23:32:00,22.0,8.0,-100.00,North,7,16.0,27.0,55,0.00,,,0.02,0.000000,,2013-04-09 05:32:00,
2013-04-08 23:42:00,22.0,8.0,-100.00,North,7,16.0,27.0,55,0.00,,,0.02,0.000000,,2013-04-09 05:42:00,
2013-04-08 23:52:00,22.0,8.0,-100.00,North,7,16.0,27.0,55,0.00,,,0.02,0.000000,,2013-04-09 05:52:00,